Location: Samoth
(37.3328°N, 88.7876°W)
Time: 13:47:59
(UTC+00:00)

Envisat - Pass Details

Date: 18 September 2021
Orbit: 764 x 766 km, 98.2° (Epoch: 23 October)

Event Time Altitude Azimuth Distance (km) Brightness Sun altitude
Rises 10:01:01 0° 29° (NNE) 3,237 7.0 -20.1°
Reaches altitude 10° 10:03:55 10° 46° (NE) 2,305 6.4 -19.5°
Maximum altitude 10:07:37 20° 93° (E) 1,706 5.6 -18.8°
Drops below altitude 10° 10:11:18 10° 141° (SE) 2,293 5.7 -18.1°
Sets 10:14:10 0° 157° (SSE) 3,214 6.3 -17.6°
